Disclaimer

Please do not use the information listed here in-flight or in-navigation, as they are not provided to us by the airports but are provided by volunteers, so they might be outdated.

Search


Regions


Airport information page

No radio frequency information is available.

Airport informations:
Latitude: 59° 26' 40.97" N
Longitude: 013° 20' 14.50" E
Elevation: 352 feet - 107 meters
Operating hours: NO OPERATING HOURS LISTED
Operating agency: Civil government, landing fees and diplomatic clearance may be required
Timezone: UTC+1(+2DT) - Last Sunday in March to last Sunday in October
Fuel: Jet A1, without icing nhibitor.

100/130 MIL Spec, low lead, aviation gasoline (BLUE)

Runway information:
03/21 - 8255 x 148 feet< - >2516 x 45 meters
03L/21R - 1840 x 170 feet< - >561 x 52 meters

Recent METARs:
ESOK 221920Z 06005KT 8000 BR OVC005 M03/M03 Q1007
ESOK 221950Z 05005KT 8000 OVC004 M03/M03 Q1007
ESOK 222020Z 04004KT 8000 OVC004 M03/M03 Q1007

Airport on the map: